RH
64 56 46 42 41 37 35 33 34 30 25 22 23 28 30 33 35 36 35 38 39 45 50 52 59 64 65
52 45 42 41 39 37 37 36 30 27 26 23 24 27 31 33 35 37 40 41 42 45 46 48 51 53 57
46 42 42 38 36 35 30 27 27 26 26 25 25 27 29 31 34 36 38 41 43 45 46 49 49 49 55
43 41 37 34 31 30 29 28 28 25 22 20 20 22 23 26 29 34 35 35 37 39 43 43 44 45 44
35 33 31 27 25 26 26 24 23 21 22 22 23 23 23 22 22 21 22 23 25 28 31 34 36 38 40
29 29 28 28 27 26 25 25 26 26 28 28 26 24 23 23 22 22 23 23 22 23 24 25 25 25 24
25 27 31 30 30 30 31 31 32 30 27 26 25 25 26 27 28 29 30 32 32 32 33 33 33 31 28
33 33 34 37 36 36 34 32 31 29 28 28 29 31 32 34 35 37 39 40 41 41 40 38 30 24 20
35 39 41 38 37 37 37 36 33 32 32 33 34 36 38 40 42 43 45 46 45 43 33 25 21 20 20
45 44 41 40 42 44 45 43 40 38 38 39 39 40 42 43 45 45 47 46 41 26 22 21 21 21 22
46 45 46 49 53 51 48 45 44 43 43 43 44 44 45 46 47 48 48 40 25 24 24 23 23 23 23
52 52 55 59 58 56 52 50 49 48 48 48 48 49 49 50 51 50 43 28 26 25 24 24 24 25 27
56 60 63 60 59 58 58 55 53 53 53 52 53 53 54 55 54 45 33 27 27 27 27 27 27 29 32
68 69 63 61 59 59 60 58 55 54 55 55 56 56 57 57 53 41 32 30 29 29 28 27 30 35 36
69 65 64 63 60 60 60 61 58 56 57 58 57 58 60 58 54 47 37 32 30 29 29 34 37 38 38
68 66 66 66 63 61 65 67 66 61 60 59 60 61 61 62 60 52 38 33 30 33 37 38 38 38 38
74 70 67 68 70 69 69 72 71 68 66 65 65 65 66 69 66 44 38 36 38 40 41 39 38 38 34